Location: Fort Wayne
(41.1310°N, 85.1290°W)
Time: 21:26:08
(UTC-05:00)

COSMOS 2406 - Visible Passes

Search period start: 02 December 2016 00:00
Search period end: 12 December 2016 00:00
Orbit: 845 x 862 km, 71.0° (Epoch: 01 December)

Date Brightness Start Highest point End Pass type
(mag) Time Alt. Az. Time Alt. Az. Time Alt. Az.
02 Dec 4.0 18:40:01 10° NNW 18:45:36 56° WSW 18:51:11 10° S visible
03 Dec 4.0 18:28:36 10° NNW 18:34:11 55° WSW 18:39:45 10° S visible
04 Dec 4.1 18:17:12 10° NNW 18:22:45 54° WSW 18:28:19 10° S visible
05 Dec 4.2 18:05:47 10° NNW 18:11:20 53° WSW 18:16:53 10° S visible
06 Dec 4.5 07:15:03 10° S 07:20:25 47° ESE 07:25:50 10° NE visible
06 Dec 4.2 17:54:21 10° NNW 17:59:55 52° WSW 18:05:27 10° S visible
07 Dec 4.4 07:03:37 10° S 07:09:00 47° ESE 07:14:26 10° NE visible
07 Dec 4.3 17:42:57 10° NNW 17:48:29 52° WSW 17:54:01 10° S visible
08 Dec 4.4 06:52:11 10° S 06:57:35 48° ESE 07:03:01 10° NE visible
08 Dec 4.4 17:31:33 10° NNW 17:37:03 51° WSW 17:42:35 10° S visible
09 Dec 4.3 06:40:45 10° S 06:46:09 49° ESE 06:51:37 10° NE visible
10 Dec 4.2 06:29:18 10° S 06:34:44 50° ESE 06:40:12 10° NE visible
11 Dec 4.1 06:17:53 10° S 06:23:19 50° ESE 06:28:48 10° NE visible
